DW3348 Weather Reports


Display with metric or nautical units.
time (UTC)temp
F
wind
direction
speed
MPH
gust
MPH
rain 1hr
in
rain 24hr
in
rain mn
in
humidity
%
barometer
mb
20260505021427 57 118 0.0 5.0 0.00 0.00 0.00 85 1012.8
20260505015627 57 149 1.0 6.0 0.00 0.00 0.00 84 1012.8
20260505014727 57 152 0.0 5.0 0.00 0.00 0.00 84 1012.8
20260505013827 57 150 1.0 7.0 0.00 0.00 0.00 84 1012.9
20260505012927 58 146 1.0 6.0 0.00 0.00 0.00 84 1012.9
20260505012027 58 127 0.0 6.0 0.00 0.00 0.00 83 1013.0
20260505011127 58 139 2.0 9.0 0.00 0.00 0.00 83 1013.0
20260505010227 58 153 2.0 7.0 0.00 0.00 0.00 82 1013.0
20260505004427 59 150 0.0 4.0 0.00 0.00 0.00 82 1013.1
20260505003527 59 131 1.0 6.0 0.00 0.00 0.00 82 1013.1
20260505002627 59 107 1.0 6.0 0.00 0.00 0.00 80 1013.0
20260505001727 59 112 1.0 5.0 0.00 0.00 0.00 81 1013.1
20260504235927 60 157 1.0 8.0 0.00 0.00 0.00 80 1013.1
20260504235027 60 154 3.0 9.0 0.00 0.00 0.00 79 1013.1
20260504234127 60 105 2.0 7.0 0.00 0.00 0.00 78 1013.1
20260504233227 61 140 2.0 7.0 0.00 0.00 0.00 78 1013.1
20260504232327 61 150 3.0 12.0 0.00 0.00 0.00 78 1013.2
20260504231427 61 143 2.0 8.0 0.00 0.00 0.00 78 1013.2
20260504230527 61 153 3.0 9.0 0.00 0.00 0.00 78 1013.3
20260504225627 61 151 3.0 9.0 0.00 0.00 0.00 78 1013.3
20260504224727 61 146 2.0 7.0 0.00 0.00 0.00 79 1013.4
20260504223827 61 146 3.0 9.0 0.00 0.00 0.00 79 1013.3
20260504222927 61 148 2.0 9.0 0.00 0.00 0.00 80 1013.4
20260504222026 60 164 2.0 12.0 0.00 0.00 0.00 81 1013.4
20260504221127 60 148 2.0 9.0 0.00 0.00 0.00 80 1013.6
20260504220227 60 155 2.0 9.0 0.00 0.00 0.00 80 1013.6
20260504215327 60 168 2.0 6.0 0.00 0.00 0.00 82 1013.5
20260504214426 60 150 3.0 11.0 0.00 0.00 0.00 81 1013.6
20260504213527 60 151 3.0 13.0 0.00 0.00 0.00 81 1013.6
20260504212627 60 149 3.0 11.0 0.00 0.00 0.00 81 1013.6
20260504211727 59 154 2.0 7.0 0.00 0.00 0.00 82 1013.6
20260504210827 59 157 3.0 9.0 0.00 0.00 0.00 81 1013.7
20260504205927 59 156 3.0 9.0 0.00 0.00 0.00 81 1013.7
20260504205027 59 144 4.0 11.0 0.00 0.00 0.00 81 1013.8
20260504203227 60 140 3.0 9.0 0.00 0.00 0.00 80 1013.7
20260504202327 60 128 3.0 9.0 0.00 0.00 0.00 80 1013.7
20260504201427 60 124 4.0 12.0 0.00 0.00 0.00 79 1013.7
20260504200527 60 141 2.0 9.0 0.00 0.00 0.00 79 1013.7
20260504194726 60 185 1.0 5.0 0.00 0.00 0.00 80 1013.6
20260504192927 59 99 1.0 5.0 0.00 0.00 0.00 81 1013.6
20260504192026 59 153 2.0 8.0 0.00 0.00 0.00 81 1013.7
20260504191127 59 147 3.0 10.0 0.00 0.00 0.00 81 1013.7
20260504185326 59 168 3.0 9.0 0.00 0.00 0.00 83 1013.7
20260504183527 58 146 2.0 10.0 0.00 0.00 0.00 84 1013.8
20260504182627 58 152 1.0 6.0 0.00 0.00 0.00 85 1013.7
20260504181726 57 168 2.0 8.0 0.00 0.00 0.00 85 1013.7
20260504180827 57 159 2.0 6.0 0.00 0.00 0.00 86 1013.8
20260504175927 57 144 3.0 8.0 0.00 0.00 0.00 85 1013.7
20260504175026 57 160 4.0 12.0 0.00 0.00 0.00 85 1013.7
20260504174126 57 157 2.0 8.0 0.00 0.00 0.00 86 1013.6
20260504173227 57 150 2.0 10.0 0.00 0.00 0.00 86 1013.5
20260504172327 57 141 2.0 6.0 0.00 0.00 0.00 87 1013.6
20260504171426 56 159 1.0 7.0 0.00 0.00 0.00 88 1013.5
20260504170526 56 169 2.0 8.0 0.00 0.00 0.00 88 1013.4
20260504160227 55 160 2.0 7.0 0.00 0.00 0.00 90 1013.1
20260504140527 54 132 0.0 4.0 0.00 0.00 0.00 93 1012.3
20260504130226 53 151 1.0 4.0 0.00 0.00 0.00 93 1011.8
20260504100226 51 0 0.0 0.0 0.00 0.00 0.00 90 1010.2
20260504081426 53 0 0.0 0.0 0.00 0.00 0.00 83 1009.3
20260504080526 53 0 0.0 0.0 0.00 0.00 0.00 83 1009.2
20260504070226 56 0 0.0 0.0 0.00 0.00 0.00 80 1009.3
20260504050526 63 0 0.0 0.0 0.00 0.00 0.00 67 1009.3
20260504045626 64 0 0.0 0.0 0.00 0.00 0.00 67 1009.3
20260504043827 65 0 0.0 0.0 0.00 0.00 0.00 62 1009.2
20260504042927 66 0 0.0 0.0 0.00 0.00 0.00 61 1009.1
20260504042026 66 0 0.0 0.0 0.00 0.00 0.00 60 1009.0
20260504041127 68 0 0.0 0.0 0.00 0.00 0.00 58 1008.9
20260504040227 69 0 0.0 0.0 0.00 0.00 0.00 56 1008.8
20260504035327 70 0 0.0 0.0 0.00 0.00 0.00 55 1008.8
20260504032626 72 0 0.0 0.0 0.00 0.00 0.00 49 1008.7
20260504031726 73 0 0.0 0.0 0.00 0.00 0.00 49 1008.6
20260504030827 74 0 0.0 0.0 0.00 0.00 0.00 44 1008.7
20260504025926 75 0 0.0 0.0 0.00 0.00 0.00 43 1008.7
20260504025027 76 0 0.0 0.0 0.00 0.00 0.00 43 1008.8
20260504024126 76 0 0.0 0.0 0.00 0.00 0.00 41 1008.7
20260504022327 78 0 0.0 0.0 0.00 0.00 0.00 38 1008.8